QPF
0.05 0.05 0.04 0.04 0.05 0.06 0.07 0.07 0.07 0.09 0.10 0.09 0.07 0.06 0.06 0.04 0.04 0.05 0.04 0.06 0.09 0.10 0.10 0.10 0.11 0.13 0.16 0.18 0.18 0.17 0.16 0.15 0.14 0.12 0.11 0.11 0.12 0.13
0.05 0.05 0.04 0.04 0.05 0.05 0.07 0.08 0.09 0.11 0.10 0.08 0.07 0.07 0.06 0.04 0.05 0.05 0.06 0.08 0.07 0.08 0.09 0.10 0.11 0.13 0.14 0.17 0.19 0.20 0.21 0.20 0.19 0.17 0.15 0.14 0.13 0.12
0.07 0.06 0.03 0.02 0.03 0.04 0.05 0.06 0.07 0.09 0.09 0.09 0.07 0.05 0.04 0.04 0.04 0.04 0.04 0.05 0.06 0.08 0.10 0.10 0.11 0.12 0.13 0.16 0.18 0.20 0.23 0.26 0.26 0.25 0.22 0.19 0.16 0.14
0.06 0.06 0.04 0.04 0.04 0.04 0.05 0.05 0.06 0.07 0.06 0.07 0.09 0.06 0.04 0.04 0.04 0.03 0.03 0.03 0.04 0.05 0.06 0.06 0.07 0.08 0.10 0.13 0.15 0.17 0.18 0.20 0.22 0.22 0.22 0.19 0.17 0.15
0.07 0.06 0.05 0.05 0.05 0.05 0.07 0.07 0.07 0.09 0.09 0.08 0.08 0.06 0.03 0.02 0.02 0.02 0.02 0.03 0.03 0.04 0.05 0.07 0.09 0.11 0.11 0.12 0.12 0.13 0.14 0.15 0.16 0.16 0.17 0.17 0.15 0.13
0.07 0.06 0.05 0.06 0.06 0.07 0.06 0.07 0.08 0.09 0.08 0.07 0.05 0.04 0.04 0.03 0.03 0.03 0.04 0.04 0.04 0.04 0.05 0.06 0.07 0.08 0.09 0.10 0.11 0.12 0.13 0.15 0.15 0.13 0.10 0.08 0.08 0.08
0.04 0.05 0.05 0.06 0.07 0.07 0.08 0.07 0.06 0.06 0.05 0.05 0.04 0.05 0.04 0.04 0.04 0.05 0.06 0.06 0.06 0.05 0.04 0.04 0.04 0.04 0.05 0.06 0.08 0.12 0.14 0.15 0.15 0.13 0.10 0.08 0.06 0.05
0.04 0.05 0.05 0.05 0.05 0.05 0.05 0.04 0.04 0.04 0.04 0.06 0.08 0.08 0.06 0.06 0.06 0.06 0.05 0.06 0.05 0.03 0.03 0.03 0.02 0.03 0.03 0.04 0.07 0.10 0.10 0.10 0.10 0.10 0.09 0.09 0.09 0.07
0.05 0.05 0.05 0.04 0.04 0.04 0.05 0.05 0.05 0.05 0.06 0.08 0.10 0.08 0.05 0.05 0.05 0.05 0.04 0.04 0.04 0.03 0.03 0.03 0.03 0.03 0.03 0.03 0.04 0.04 0.05 0.06 0.07 0.07 0.08 0.08 0.07 0.07
0.06 0.06 0.04 0.03 0.04 0.04 0.04 0.04 0.04 0.04 0.05 0.05 0.05 0.04 0.03 0.03 0.03 0.03 0.02 0.03 0.03 0.02 0.03 0.03 0.03 0.03 0.04 0.04 0.05 0.05 0.05 0.05 0.05 0.06 0.06 0.06 0.06 0.06
0.06 0.05 0.05 0.04 0.04 0.04 0.03 0.03 0.03 0.04 0.05 0.05 0.04 0.03 0.03 0.03 0.03 0.03 0.03 0.03 0.03 0.03 0.04 0.05 0.04 0.04 0.05 0.05 0.05 0.06 0.05 0.06 0.06 0.06 0.06 0.05 0.05 0.05
0.06 0.06 0.05 0.04 0.03 0.02 0.02 0.03 0.03 0.04 0.04 0.04 0.04 0.03 0.02 0.02 0.03 0.04 0.04 0.04 0.04 0.03 0.03 0.05 0.06 0.06 0.06 0.06 0.05 0.06 0.06 0.06 0.06 0.06 0.06 0.06 0.06 0.05
0.03 0.04 0.03 0.02 0.02 0.02 0.02 0.03 0.04 0.04 0.03 0.02 0.01 0.01 0.01 0.01 0.02 0.03 0.03 0.03 0.04 0.05 0.05 0.06 0.08 0.09 0.08 0.07 0.06 0.06 0.06 0.06 0.06 0.06 0.07 0.06 0.06 0.06
0.02 0.02 0.02 0.01 0.01 0.01 0.01 0.01 0.02 0.02 0.01 0.01 0.01 0.01 0.01 0.01 0.02 0.01 0.01 0.02 0.02 0.03 0.03 0.04 0.06 0.07 0.06 0.05 0.04 0.04 0.04 0.04 0.04 0.04 0.04 0.05 0.05 0.04
0.02 0.02 0.01 0.01 0.00 0.00 0.00 0.00 0.00 0.00 0.01 0.01 0.01 0.01 0.02 0.02 0.01 0.01 0.01 0.01 0.01 0.01 0.01 0.01 0.02 0.03 0.02 0.02 0.02 0.02 0.01 0.01 0.01 0.01 0.01 0.02 0.02 0.03
0.01 0.01 0.01 0.01 0.00 0.00 0.00 0.00 0.00 0.00 0.00 0.01 0.01 0.01 0.01 0.01 0.01 0.01 0.01 0.01 0.01 0.01 0.01 0.01 0.01 0.01 0.01 0.01 0.01 0.01 0.01 0.01 0.00 0.01 0.01 0.01 0.01 0.01
0.01 0.00 0.01 0.00 0.00 0.00 0.00 0.00 0.00 0.00 0.00 0.00 0.01 0.01 0.01 0.01 0.01 0.01 0.01 0.01 0.01 0.01 0.01 0.01 0.01 0.01 0.01 0.01 0.01 0.01 0.01 0.01 0.01 0.01 0.01 0.01 0.01 0.01
0.00 0.00 0.00 0.00 0.00 0.00 0.00 0.00 0.00 0.00 0.00 0.00 0.00 0.00 0.01 0.01 0.01 0.01 0.01 0.01 0.01 0.00 0.00 0.00 0.00 0.01 0.01 0.01 0.01 0.01 0.01 0.01 0.01 0.01 0.01 0.01 0.01 0.02
0.00 0.00 0.00 0.00 0.00 0.00 0.00 0.00 0.00 0.00 0.00 0.00 0.00 0.00 0.00 0.00 0.00 0.00 0.00 0.00 0.00 0.00 0.00 0.00 0.00 0.00 0.01 0.01 0.00 0.00 0.00 0.01 0.01 0.02 0.03 0.03 0.03 0.03
0.00 0.00 0.00 0.00 0.00 0.00 0.00 0.00 0.00 0.01 0.01 0.01 0.01 0.01 0.00 0.00 0.00 0.00 0.00 0.01 0.01 0.01 0.00 0.00 0.00 0.00 0.01 0.01 0.00 0.00 0.00 0.01 0.01 0.02 0.03 0.02 0.02 0.02
0.00 0.00 0.00 0.00 0.00 0.00 0.01 0.01 0.01 0.01 0.01 0.01 0.01 0.01 0.01 0.01 0.01 0.01 0.01 0.01 0.01 0.01 0.00 0.00 0.00 0.01 0.01 0.02 0.02 0.01 0.01 0.01 0.01 0.01 0.01 0.01 0.02 0.04
0.00 0.00 0.00 0.00 0.00 0.00 0.01 0.01 0.02 0.02 0.02 0.02 0.02 0.03 0.03 0.02 0.02 0.01 0.01 0.01 0.01 0.01 0.01 0.00 0.00 0.01 0.01 0.02 0.02 0.01 0.01 0.02 0.01 0.01 0.01 0.01 0.03 0.03
0.00 0.00 0.00 0.00 0.00 0.00 0.00 0.01 0.01 0.01 0.02 0.02 0.02 0.02 0.03 0.04 0.04 0.04 0.03 0.02 0.02 0.01 0.01 0.01 0.00 0.01 0.01 0.01 0.01 0.01 0.01 0.02 0.02 0.02 0.03 0.03 0.03 0.03
MSLP
1016.01 1016.03 1016.07 1016.10 1016.07 1015.94 1015.70 1015.34 1014.90 1014.40 1013.89 1013.42 1013.01 1012.69 1012.47 1012.33 1012.26 1012.23 1012.22 1012.20 1012.17 1012.11 1012.01 1011.89 1011.75 1011.62 1011.51 1011.44 1011.44 1011.52 1011.71 1012.00 1012.39 1012.86 1013.38 1013.93 1014.47 1014.98
1016.40 1016.36 1016.33 1016.29 1016.19 1016.00 1015.71 1015.32 1014.84 1014.33 1013.81 1013.33 1012.93 1012.62 1012.42 1012.31 1012.27 1012.28 1012.30 1012.32 1012.31 1012.26 1012.16 1012.01 1011.83 1011.63 1011.44 1011.28 1011.19 1011.20 1011.32 1011.56 1011.93 1012.40 1012.94 1013.54 1014.13 1014.72
1016.96 1016.86 1016.76 1016.64 1016.47 1016.22 1015.87 1015.45 1014.96 1014.45 1013.94 1013.49 1013.11 1012.84 1012.67 1012.60 1012.61 1012.67 1012.75 1012.82 1012.86 1012.85 1012.77 1012.64 1012.45 1012.22 1011.99 1011.78 1011.63 1011.57 1011.62 1011.81 1012.13 1012.57 1013.11 1013.71 1014.33 1014.95
1017.63 1017.48 1017.32 1017.13 1016.89 1016.59 1016.21 1015.77 1015.28 1014.79 1014.31 1013.90 1013.57 1013.34 1013.22 1013.20 1013.26 1013.38 1013.52 1013.65 1013.75 1013.80 1013.78 1013.69 1013.53 1013.32 1013.09 1012.86 1012.67 1012.56 1012.57 1012.69 1012.96 1013.35 1013.84 1014.42 1015.03 1015.64
1018.37 1018.17 1017.96 1017.73 1017.44 1017.11 1016.71 1016.28 1015.81 1015.35 1014.92 1014.56 1014.28 1014.11 1014.04 1014.06 1014.17 1014.33 1014.52 1014.71 1014.88 1014.99 1015.04 1015.02 1014.92 1014.76 1014.56 1014.35 1014.17 1014.04 1014.00 1014.07 1014.28 1014.60 1015.03 1015.55 1016.11 1016.68
1019.12 1018.90 1018.66 1018.40 1018.09 1017.75 1017.36 1016.94 1016.52 1016.11 1015.73 1015.42 1015.19 1015.06 1015.03 1015.08 1015.22 1015.41 1015.63 1015.86 1016.08 1016.25 1016.37 1016.43 1016.41 1016.32 1016.19 1016.02 1015.86 1015.74 1015.68 1015.72 1015.86 1016.12 1016.48 1016.91 1017.40 1017.91
1019.84 1019.62 1019.38 1019.10 1018.80 1018.46 1018.10 1017.72 1017.34 1016.98 1016.66 1016.40 1016.22 1016.11 1016.10 1016.16 1016.29 1016.48 1016.71 1016.96 1017.20 1017.42 1017.59 1017.72 1017.78 1017.77 1017.72 1017.62 1017.51 1017.41 1017.36 1017.37 1017.47 1017.67 1017.95 1018.31 1018.71 1019.14
1020.51 1020.30 1020.07 1019.81 1019.52 1019.21 1018.88 1018.55 1018.22 1017.90 1017.63 1017.41 1017.25 1017.16 1017.15 1017.19 1017.30 1017.46 1017.66 1017.89 1018.13 1018.36 1018.57 1018.74 1018.87 1018.94 1018.96 1018.94 1018.90 1018.84 1018.81 1018.83 1018.90 1019.05 1019.27 1019.56 1019.89 1020.23
1021.13 1020.93 1020.72 1020.48 1020.22 1019.94 1019.65 1019.36 1019.07 1018.81 1018.57 1018.38 1018.23 1018.14 1018.11 1018.12 1018.19 1018.30 1018.44 1018.62 1018.82 1019.04 1019.25 1019.44 1019.61 1019.75 1019.84 1019.89 1019.91 1019.92 1019.92 1019.96 1020.03 1020.15 1020.33 1020.57 1020.83 1021.12
1021.67 1021.50 1021.31 1021.11 1020.88 1020.64 1020.38 1020.12 1019.87 1019.64 1019.43 1019.26 1019.12 1019.02 1018.95 1018.93 1018.94 1018.98 1019.06 1019.17 1019.31 1019.48 1019.66 1019.85 1020.04 1020.21 1020.35 1020.46 1020.55 1020.61 1020.67 1020.73 1020.82 1020.94 1021.10 1021.30 1021.53 1021.77
1022.14 1022.01 1021.85 1021.68 1021.49 1021.28 1021.06 1020.83 1020.61 1020.40 1020.21 1020.05 1019.91 1019.80 1019.72 1019.65 1019.61 1019.59 1019.59 1019.62 1019.69 1019.80 1019.93 1020.09 1020.27 1020.45 1020.62 1020.77 1020.91 1021.03 1021.13 1021.23 1021.34 1021.47 1021.62 1021.81 1022.01 1022.23
1022.57 1022.47 1022.35 1022.22 1022.07 1021.89 1021.70 1021.50 1021.30 1021.11 1020.94 1020.79 1020.66 1020.54 1020.44 1020.34 1020.25 1020.18 1020.12 1020.08 1020.07 1020.11 1020.18 1020.29 1020.44 1020.60 1020.78 1020.96 1021.13 1021.28 1021.42 1021.55 1021.69 1021.83 1021.98 1022.16 1022.35 1022.55
1022.96 1022.91 1022.85 1022.76 1022.64 1022.49 1022.33 1022.15 1021.97 1021.80 1021.64 1021.50 1021.38 1021.27 1021.16 1021.05 1020.93 1020.82 1020.71 1020.61 1020.54 1020.50 1020.51 1020.57 1020.67 1020.81 1020.97 1021.15 1021.33 1021.50 1021.66 1021.81 1021.95 1022.10 1022.25 1022.42 1022.59 1022.78
1023.36 1023.36 1023.35 1023.31 1023.23 1023.12 1022.97 1022.82 1022.65 1022.50 1022.35 1022.22 1022.11 1022.01 1021.90 1021.79 1021.67 1021.53 1021.39 1021.25 1021.12 1021.03 1020.98 1020.98 1021.03 1021.12 1021.26 1021.42 1021.59 1021.75 1021.91 1022.06 1022.19 1022.33 1022.46 1022.60 1022.75 1022.91
1023.78 1023.84 1023.89 1023.89 1023.85 1023.77 1023.65 1023.50 1023.35 1023.20 1023.07 1022.95 1022.85 1022.76 1022.66 1022.56 1022.43 1022.29 1022.13 1021.96 1021.80 1021.66 1021.56 1021.50 1021.50 1021.55 1021.65 1021.77 1021.91 1022.05 1022.19 1022.31 1022.42 1022.52 1022.62 1022.72 1022.83 1022.95
1024.25 1024.37 1024.47 1024.52 1024.51 1024.45 1024.34 1024.20 1024.06 1023.91 1023.78 1023.67 1023.57 1023.49 1023.40 1023.30 1023.18 1023.03 1022.86 1022.68 1022.49 1022.32 1022.19 1022.09 1022.04 1022.05 1022.09 1022.17 1022.27 1022.37 1022.46 1022.54 1022.61 1022.66 1022.71 1022.75 1022.80 1022.87
1024.77 1024.95 1025.08 1025.16 1025.18 1025.13 1025.03 1024.89 1024.74 1024.59 1024.45 1024.33 1024.23 1024.15 1024.06 1023.96 1023.84 1023.70 1023.52 1023.33 1023.13 1022.94 1022.78 1022.65 1022.57 1022.53 1022.53 1022.56 1022.61 1022.66 1022.70 1022.73 1022.73 1022.73 1022.71 1022.69 1022.68 1022.69
1025.34 1025.55 1025.71 1025.80 1025.83 1025.78 1025.68 1025.54 1025.38 1025.21 1025.06 1024.93 1024.82 1024.72 1024.62 1024.51 1024.38 1024.23 1024.06 1023.86 1023.66 1023.46 1023.28 1023.13 1023.02 1022.94 1022.90 1022.89 1022.89 1022.89 1022.87 1022.84 1022.78 1022.71 1022.63 1022.56 1022.48 1022.43
1025.94 1026.15 1026.32 1026.41 1026.43 1026.38 1026.27 1026.12 1025.95 1025.77 1025.60 1025.45 1025.31 1025.19 1025.07 1024.95 1024.81 1024.65 1024.46 1024.26 1024.06 1023.85 1023.67 1023.51 1023.38 1023.28 1023.21 1023.15 1023.10 1023.05 1022.98 1022.90 1022.79 1022.66 1022.53 1022.39 1022.27 1022.16
1026.51 1026.72 1026.87 1026.95 1026.96 1026.90 1026.78 1026.63 1026.45 1026.26 1026.08 1025.91 1025.75 1025.60 1025.46 1025.31 1025.15 1024.98 1024.79 1024.58 1024.37 1024.17 1023.98 1023.82 1023.68 1023.56 1023.46 1023.37 1023.28 1023.19 1023.07 1022.94 1022.78 1022.61 1022.43 1022.25 1022.09 1021.94
1027.02 1027.20 1027.33 1027.40 1027.40 1027.34 1027.23 1027.08 1026.90 1026.71 1026.53 1026.34 1026.17 1026.00 1025.83 1025.66 1025.48 1025.29 1025.08 1024.87 1024.67 1024.47 1024.28 1024.11 1023.96 1023.83 1023.71 1023.59 1023.47 1023.33 1023.18 1023.01 1022.81 1022.61 1022.40 1022.19 1022.00 1021.83
1027.43 1027.58 1027.69 1027.75 1027.75 1027.70 1027.61 1027.48 1027.32 1027.15 1026.97 1026.79 1026.61 1026.42 1026.24 1026.04 1025.84 1025.63 1025.41 1025.20 1024.99 1024.79 1024.60 1024.43 1024.27 1024.13 1023.99 1023.84 1023.69 1023.52 1023.33 1023.12 1022.90 1022.67 1022.44 1022.22 1022.01 1021.82
1027.71 1027.85 1027.95 1028.01 1028.03 1028.01 1027.94 1027.85 1027.73 1027.59 1027.43 1027.26 1027.08 1026.89 1026.69 1026.47 1026.26 1026.03 1025.80 1025.58 1025.37 1025.16 1024.97 1024.80 1024.63 1024.47 1024.31 1024.13 1023.95 1023.74 1023.52 1023.29 1023.04 1022.79 1022.55 1022.31 1022.09 1021.89
Thickness
5728 5728 5727 5727 5726 5725 5724 5721 5716 5710 5709 5710 5709 5710 5710 5709 5708 5707 5706 5705 5704 5703 5701 5700 5699 5697 5695 5694 5692 5690 5688 5687 5685 5684 5682 5680 5679 5678
5726 5724 5723 5723 5722 5722 5721 5719 5717 5713 5707 5706 5705 5704 5704 5703 5702 5700 5699 5698 5696 5695 5693 5692 5690 5689 5688 5685 5684 5682 5681 5680 5678 5676 5674 5673 5671 5670
5722 5721 5720 5720 5719 5718 5716 5715 5712 5709 5704 5702 5700 5698 5697 5696 5694 5693 5691 5689 5687 5685 5684 5682 5681 5680 5678 5677 5675 5674 5672 5670 5669 5667 5665 5664 5663 5661
5718 5717 5715 5715 5714 5713 5711 5709 5706 5704 5700 5696 5692 5690 5689 5688 5686 5684 5682 5680 5677 5675 5674 5672 5670 5669 5668 5666 5665 5663 5661 5660 5658 5657 5655 5654 5653 5651
5713 5711 5710 5709 5708 5706 5705 5702 5700 5698 5694 5690 5686 5683 5681 5679 5677 5675 5672 5670 5668 5665 5664 5661 5659 5657 5656 5655 5654 5652 5650 5649 5648 5645 5643 5641 5640 5639
5708 5707 5705 5704 5702 5700 5698 5695 5693 5690 5687 5683 5679 5676 5673 5670 5668 5665 5662 5659 5657 5655 5652 5650 5648 5646 5645 5644 5642 5640 5639 5637 5635 5634 5631 5629 5627 5625
5702 5701 5699 5698 5696 5694 5692 5688 5685 5682 5679 5676 5672 5669 5665 5661 5658 5656 5653 5650 5647 5643 5641 5639 5636 5635 5633 5631 5629 5627 5626 5624 5622 5620 5618 5616 5614 5612
5695 5694 5692 5690 5688 5686 5684 5681 5678 5675 5672 5668 5664 5661 5657 5653 5650 5648 5645 5642 5638 5633 5630 5627 5625 5622 5620 5618 5616 5614 5613 5611 5608 5606 5604 5602 5600 5598
5688 5686 5685 5682 5680 5678 5675 5672 5669 5666 5664 5661 5657 5653 5649 5646 5642 5639 5636 5632 5628 5622 5620 5616 5613 5610 5607 5605 5604 5602 5600 5598 5595 5593 5590 5588 5586 5584
5681 5678 5676 5674 5671 5669 5667 5663 5659 5656 5654 5651 5648 5644 5640 5637 5634 5630 5626 5621 5617 5612 5609 5606 5602 5598 5596 5593 5591 5589 5587 5584 5582 5579 5577 5575 5573 5571
5672 5670 5667 5665 5662 5660 5658 5654 5650 5647 5644 5641 5637 5634 5631 5627 5624 5621 5616 5613 5608 5603 5597 5594 5591 5587 5584 5581 5578 5576 5573 5571 5568 5566 5564 5562 5560 5558
5663 5660 5658 5655 5652 5650 5648 5645 5641 5636 5634 5631 5627 5624 5621 5617 5614 5610 5606 5603 5598 5593 5588 5583 5579 5575 5573 5569 5565 5563 5560 5558 5555 5553 5550 5548 5546 5545
5654 5650 5647 5644 5642 5640 5637 5634 5630 5627 5624 5620 5616 5613 5610 5606 5602 5598 5595 5592 5588 5583 5578 5573 5569 5565 5561 5557 5554 5550 5547 5545 5542 5540 5538 5535 5533 5531
5644 5640 5636 5634 5632 5630 5627 5624 5621 5618 5614 5610 5606 5601 5598 5594 5590 5586 5583 5580 5576 5572 5567 5563 5559 5555 5551 5547 5544 5540 5536 5533 5530 5528 5525 5523 5521 5519
5635 5631 5628 5625 5623 5620 5616 5613 5611 5607 5603 5599 5594 5589 5585 5582 5579 5575 5572 5568 5565 5561 5557 5553 5549 5545 5541 5538 5534 5530 5527 5523 5520 5517 5515 5513 5511 5509
5626 5622 5619 5616 5613 5609 5606 5602 5599 5595 5591 5587 5582 5578 5575 5571 5568 5564 5560 5557 5554 5551 5547 5543 5539 5536 5533 5528 5525 5522 5518 5515 5511 5508 5505 5503 5501 5499
5618 5614 5610 5606 5603 5599 5595 5591 5587 5584 5579 5575 5571 5567 5564 5560 5556 5552 5549 5546 5543 5540 5537 5533 5530 5527 5523 5520 5518 5515 5510 5507 5503 5500 5497 5495 5493 5491
5610 5605 5600 5595 5591 5587 5583 5580 5576 5572 5567 5563 5560 5556 5552 5549 5545 5542 5539 5535 5532 5529 5527 5524 5521 5519 5516 5513 5508 5506 5503 5499 5496 5492 5489 5488 5487 5484
5600 5595 5589 5585 5580 5576 5572 5568 5564 5560 5556 5553 5549 5545 5542 5539 5536 5532 5529 5526 5523 5520 5517 5514 5512 5510 5509 5506 5503 5497 5495 5492 5489 5487 5484 5482 5480 5479
5589 5584 5580 5575 5570 5566 5562 5558 5554 5550 5546 5543 5539 5535 5532 5529 5526 5523 5519 5516 5514 5512 5509 5507 5504 5501 5499 5497 5494 5491 5488 5485 5483 5481 5479 5476 5473 5472
5579 5574 5570 5565 5560 5555 5551 5547 5543 5540 5536 5533 5529 5526 5522 5520 5517 5514 5511 5507 5505 5503 5502 5499 5496 5492 5489 5487 5487 5486 5482 5479 5476 5474 5472 5471 5470 5468
5569 5565 5560 5555 5550 5546 5542 5538 5534 5530 5527 5523 5520 5516 5513 5511 5508 5505 5503 5500 5497 5495 5492 5490 5488 5486 5484 5483 5481 5479 5476 5473 5470 5468 5466 5464 5463 5464
5560 5555 5551 5546 5542 5537 5533 5529 5525 5522 5518 5514 5511 5508 5505 5502 5499 5497 5494 5491 5489 5487 5484 5482 5481 5479 5477 5475 5473 5471 5469 5467 5465 5463 5461 5459 5457 5455